OSCAR 30

Last updated on Sat Sep 05 2026 00:03:34 GMT+0000 (Coordinated Universal Time)

1 15935U 85066A 26247.09059950 .00000038 00000+0 50614-4 0 9996 2 15935 90.1478 103.9533 0169459 55.2984 96.9392 13.36121913999965
UTC large
Height (km)
Speed (km/s)
/
Latitude / Longitude
Inclination (degrees)
Orbital Period (minutes)
Azimuth
Elevation
Range (km)
Doppler Factor

Next 0 passes for location: London (51.5072 / 0.1276)

No passes found over London.
OSCAR 30